This is the latest recevied weather packets stored in our database for station/object N3FYI-5. If no packets are shown the sender has not sent any weather packets the latest 10 day(s).
| Time | Temp. | Humidity | Pressure | Rain* | Wind** | Luminosity | Snow |
|---|---|---|---|---|---|---|---|
| 1788137492 | 63° F | 71% | 770.9 mmHg | 0 in | - | - | - |
| 1788137012 | 64° F | 74% | 770.9 mmHg | 0 in | - | - | - |
| 1788136531 | 64° F | 77% | 770.7 mmHg | 0 in | - | - | - |
| 1788136056 | 64° F | 81% | 770.9 mmHg | 0 in | - | - | - |
| 1788135573 | 65° F | 82% | 770.8 mmHg | 0 in | - | - | - |
| 1788135091 | 65° F | 81% | 770.6 mmHg | 0 in | - | - | - |
| 1788134611 | 65° F | 82% | 770.5 mmHg | 0 in | - | - | - |
| 1788134134 | 65° F | 81% | 770.5 mmHg | 0 in | - | - | - |
| 1788133650 | 65° F | 81% | 770.4 mmHg | 0 in | - | - | - |
| 1788133171 | 65° F | 81% | 770.2 mmHg | 0 in | - | - | - |
| 1788132211 | 66° F | 80% | 770.3 mmHg | 0 in | - | - | - |
| 1788131735 | 65° F | 74% | 770.3 mmHg | 0 in | - | - | - |
| 1788131255 | 66° F | 70% | 770.4 mmHg | 0 in | - | - | - |
| 1788130772 | 66° F | 70% | 770.2 mmHg | 0 in | - | - | - |
| 1788130296 | 66° F | 71% | 770.3 mmHg | 0 in | - | - | - |
| 1788129811 | 66° F | 71% | 770.5 mmHg | 0 in | - | - | - |
| 1788129330 | 66° F | 72% | 770.2 mmHg | 0 in | - | - | - |
| 1788128852 | 66° F | 72% | 770.2 mmHg | 0 in | - | - | - |
| 1788128370 | 66° F | 76% | 770.3 mmHg | 0 in | - | - | - |
| 1788127893 | 66° F | 75% | 770.3 mmHg | 0 in | - | - | - |
| 1788126999 | 66° F | 68% | 770.2 mmHg | 0 in | - | - | - |
| 1788126521 | 66° F | 67% | 770.2 mmHg | 0 in | - | - | - |
| 1788126041 | 66° F | 69% | 770.3 mmHg | 0 in | - | - | - |
| 1788125558 | 66° F | 69% | 770.3 mmHg | 0 in | - | - | - |
| 1788125089 | 66° F | 73% | 770.3 mmHg | 0 in | - | - | - |
* Rain latest hour (hover to see other rain measurements)
** Current wind speed in m/s (hover to see current wind gust speed)